Simultaneous Nadir Overpasses (SNOs) Predictions

Prediction of SNOs between FY3D and AQUA Satellite Orbit:

Table of predicted SNOs for the next 14.0 days since TLE Epoch: 9/17/2022
Index Date (FY3D) Time (FY3D) Lat,Lon (FY3D) SZA (FY3D ) Date (AQUA) Time (AQUA) Lat,Lon (AQUA) SZA (AQUA ) Distance(km) Time Diff (sec)
1 09/19/2022 14:13:24 -77.26, 131.89 103.81 09/19/2022 14:14:33 -77.26, 131.88 103.83 0.26 69
2 09/19/2022 15:03:54 76.58, -58.01 75.41 09/19/2022 15:03:45 76.58, -57.99 75.41 0.43 9
3 09/22/2022 05:40:15 76.77, 82.19 76.63 09/22/2022 05:40:42 76.78, 82.09 76.64 2.75 27
4 09/22/2022 06:30:42 -75.93,-107.40 104.31 09/22/2022 06:29:50 -75.94,-107.47 104.29 2.13 52
5 09/24/2022 20:16:40 77.14,-138.38 78.07 09/24/2022 20:17:42 77.15,-138.47 78.07 2.35 62
6 09/24/2022 21:07:09 -76.40, 31.88 102.78 09/24/2022 21:06:52 -76.41, 31.81 102.76 1.99 17
7 09/27/2022 11:43:38 -76.95, 170.68 101.14 09/27/2022 11:43:55 -76.95, 170.74 101.15 1.78 17
8 09/27/2022 12:34:06 76.18, -19.03 77.99 09/27/2022 12:33:05 76.17, -18.95 77.99 2.37 61
9 09/30/2022 02:20:03 -77.36, -50.14 99.65 09/30/2022 02:20:54 -77.35, -50.03 99.68 3.07 51



Historial Predications of SNOs between FY3D and AQUA
